STARLINK-11625, 63109

Orbit data source: Space-Track

STARLINK-11625, 63109 is a payload satellite owned by SpaceX/Seattle (US) in LEO that was launched on Thu, 27 Feb 2025 UTC via an FALCON 9 launch vehicle from the Air Force Eastern Test Range (AFETR). Payload-class satellites include a variety of spacecraft equipped with specific instruments for various scientific and technological missions. These include communications satellites like Starlink; space stations such as the ISS; scientific satellites like the Hubble; Earth observation satellites from companies like Planet Labs, Umbra, and HawkEye 360; GPS; miniature CubeSats for education and research; and military/defense satellites.

Loading next visibility...
Identifier
63109, 2025-039F
Orbit
LEO
Country
Flag of USUS
Related business
Manufacturer
SpaceX/Seattle
Mission
Operational Commercial Communications
Bus & Motor
STARLINK V2MD, Unknown motor
Mass
960 kg wet, ~910 kg dry
Launch date (UTC)
2025-02-27 (11 months ago)
Launch vehicle
FALCON 9
Launch site
Air Force Eastern Test Range (AFETR)
Object type
Payload
Rocket body
Debris
Shape & HBR
Box + 2 Pan, 18.1 m
Radar Cross Section
36.964 m², Large (>1 m²)

Expand to show TLE details & history
Last TLE update: 8 hours ago

TLE from 8 hours ago
0 STARLINK-11625
1 63109U 25039F   26035.18509280  .00232716  00000-0  17558-2 0  9996
2 63109  42.9998  79.0171 0002669 243.3150 116.7444 15.70988251 54347
Epoch: 2026-02-04T04:26Z
TLE epoch observation values (Epoch: 2026-02-04T04:26:32.017Z)
Latitude
-0.00008°
Longitude
-121.97169°
Altitude
356.652 km
Speed
7.697 km/s
True Right ascension
05h 16m 04s
True Declination
0° 00' 00"
Sunlit
Object was in full shadow at epoch
Visualization orbit readout
Latitude
Unknown
Longitude
Unknown
Altitude
Unknown
Speed
Unknown
Apparent Right ascension
Unknown
Apparent Declination
Unknown
Sunlit
N/A
Visualization observer readout
Local Sidereal Time
14:02:11
Azimuth
Unknown
Elevation
Unknown
Doppler factor
Unknown
Orbital elements
Apogee altitude
359.851 km
Perigee altitude
356.255 km
Semi-major axis
6,736.19 km
Eccentricity
0.00027
Inclination
42.9998°
RAAN
79.0171°
Arg. of periapsis
243.315°
True anomaly
116.77171°
Mean anomaly
116.7444°
Eccentric anomaly
116.75805°
Mean motion
3.92574 °/min
Orbital period
91.7 mins
BSTAR
0.0017558
Loading maneuver chart data...
Computing Atmospheric mass density...
Loading historical data...
Loading historical data...
Loading historical data...
Loading historical data...
Loading historical data...
Loading historical data...
Loading historical data...

Documentation

Showing up to 5 results
|